TimePST,TemperatureF,Dew PointF,Humidity,Sea Level PressureIn,VisibilityMPH,Wind Direction,Wind SpeedMPH,Gust SpeedMPH,PrecipitationIn,Events,Conditions,WindDirDegrees,DateUTC
12:41 AM,48.2,46.4,93,30.08,4.0,Calm,Calm,-,N/A,,Scattered Clouds,0,2012-11-24 08:41:00
12:55 AM,48.0,46.0,93,30.11,0.8,Calm,Calm,-,N/A,,Mist,0,2012-11-24 08:55:00
1:55 AM,52.0,51.1,97,30.11,0.2,Calm,Calm,-,0.01,Fog,Fog,0,2012-11-24 09:55:00
2:55 AM,50.0,48.0,93,30.10,0.2,Calm,Calm,-,N/A,Fog,Fog,0,2012-11-24 10:55:00
3:16 AM,48.2,46.4,93,30.06,1.8,Calm,Calm,-,N/A,,Mostly Cloudy,0,2012-11-24 11:16:00
3:19 AM,48.2,46.4,93,30.06,3.0,Calm,Calm,-,N/A,,Mostly Cloudy,0,2012-11-24 11:19:00
3:26 AM,48.2,46.4,93,30.06,6.0,Calm,Calm,-,N/A,,Scattered Clouds,0,2012-11-24 11:26:00
3:55 AM,48.9,46.0,90,30.08,6.0,Calm,Calm,-,N/A,,Clear,0,2012-11-24 11:55:00
4:26 AM,46.4,44.6,93,30.05,1.8,Calm,Calm,-,N/A,,Clear,0,2012-11-24 12:26:00
4:36 AM,48.2,46.4,93,30.05,4.0,Calm,Calm,-,N/A,,Clear,0,2012-11-24 12:36:00
4:50 AM,46.4,44.6,93,30.06,2.5,SSW,3.5,-,N/A,,Partly Cloudy,200,2012-11-24 12:50:00
4:55 AM,46.9,45.0,93,30.09,1.0,Calm,Calm,-,N/A,,Mist,0,2012-11-24 12:55:00
5:12 AM,46.4,44.6,93,30.06,0.2,Calm,Calm,-,N/A,Fog,Fog,0,2012-11-24 13:12:00
5:55 AM,46.9,45.0,93,30.09,0.2,Calm,Calm,-,N/A,Fog,Fog,0,2012-11-24 13:55:00
6:55 AM,46.9,45.0,93,30.09,9.0,NNE,3.5,-,N/A,,Partly Cloudy,30,2012-11-24 14:55:00
7:55 AM,51.1,48.9,92,30.09,10.0,Calm,Calm,-,N/A,,Clear,0,2012-11-24 15:55:00
8:55 AM,55.0,51.1,86,30.11,10.0,SW,3.5,-,N/A,,Clear,220,2012-11-24 16:55:00
9:00 AM,53.6,51.8,94,30.07,1.0,SW,4.6,-,N/A,,Scattered Clouds,220,2012-11-24 17:00:00
9:07 AM,53.6,51.8,94,30.08,1.0,SSW,3.5,-,N/A,,Scattered Clouds,210,2012-11-24 17:07:00
9:14 AM,55.4,51.8,88,30.08,2.0,SSW,4.6,-,N/A,,Scattered Clouds,210,2012-11-24 17:14:00
9:17 AM,53.6,51.8,94,30.07,9.0,SW,4.6,-,N/A,,Scattered Clouds,220,2012-11-24 17:17:00
9:55 AM,60.1,54.0,80,30.10,10.0,Calm,Calm,-,N/A,,Clear,0,2012-11-24 17:55:00
10:55 AM,64.9,55.0,70,30.07,10.0,Calm,Calm,-,N/A,,Clear,0,2012-11-24 18:55:00
11:55 AM,71.1,57.0,61,30.03,10.0,SSW,3.5,-,N/A,,Clear,200,2012-11-24 19:55:00
12:55 PM,75.0,51.1,43,30.00,10.0,SW,5.8,-,N/A,,Clear,230,2012-11-24 20:55:00
1:55 PM,73.0,53.1,49,29.99,10.0,SSW,8.1,-,N/A,,Clear,200,2012-11-24 21:55:00
2:55 PM,68.0,55.0,63,29.99,10.0,SSW,6.9,-,N/A,,Clear,200,2012-11-24 22:55:00
3:55 PM,66.9,55.9,68,29.98,10.0,Calm,Calm,-,N/A,,Clear,0,2012-11-24 23:55:00
4:55 PM,64.0,55.0,73,29.98,10.0,South,3.5,-,N/A,,Clear,180,2012-11-25 00:55:00
5:55 PM,62.1,53.1,72,29.97,10.0,Calm,Calm,-,N/A,,Clear,0,2012-11-25 01:55:00
6:55 PM,57.9,52.0,81,29.97,10.0,Calm,Calm,-,N/A,,Clear,0,2012-11-25 02:55:00
7:55 PM,55.9,50.0,80,29.97,10.0,Calm,Calm,-,N/A,,Clear,0,2012-11-25 03:55:00
8:55 PM,53.1,48.0,83,29.96,10.0,Calm,Calm,-,N/A,,Clear,0,2012-11-25 04:55:00
9:55 PM,54.0,46.9,77,29.96,10.0,Calm,Calm,-,N/A,,Clear,0,2012-11-25 05:55:00
10:55 PM,51.1,45.0,80,29.95,10.0,Calm,Calm,-,N/A,,Clear,0,2012-11-25 06:55:00
11:55 PM,51.1,45.0,80,29.95,10.0,Calm,Calm,-,N/A,,Clear,0,2012-11-25 07:55:00